RH
58 58 58 58 58 58 57 58 59 61 62 62 61 61 60 61 61 61 62 62 62 62 62 61 61 60 60 60 61 63 66 68 69 69 69 69 68 68 67 66 64 63 62 63 62 62 61 59 58 56 55 53 50 46 43 40 40 41 42 44 46 49 51 52 54 55 56 55 55 53 51 49 46 44 43 42 42 42 42 41 40 39 38 38 38 39
62 63 63 63 63 63 62 63 63 64 64 64 63 63 63 63 63 63 63 63 63 63 63 63 63 63 63 64 65 66 67 68 68 68 68 68 67 67 65 64 63 63 63 63 62 61 60 58 56 54 52 49 46 43 41 42 43 44 46 48 50 51 53 54 55 55 55 54 52 50 48 46 44 43 42 42 41 41 40 39 38 38 37 38 39 40
67 68 68 68 67 67 67 66 66 66 66 66 66 66 66 66 66 65 65 65 65 65 65 64 65 66 67 69 70 71 71 71 71 70 69 68 67 66 65 65 65 64 63 62 61 59 57 54 52 50 48 45 43 42 42 43 45 47 48 50 51 52 53 54 54 53 52 51 49 47 45 44 43 42 42 41 40 40 39 38 37 37 38 39 40 41
70 71 71 70 70 69 69 68 68 68 68 69 69 69 68 68 67 66 66 66 66 66 67 68 69 71 72 74 75 75 75 74 73 72 71 69 68 67 67 66 65 63 61 59 56 53 51 49 46 44 42 41 41 42 43 45 46 48 49 50 50 51 51 51 50 49 48 46 45 44 43 43 42 42 41 40 39 38 38 37 37 37 39 40 41 42
72 71 71 71 71 70 69 69 69 69 70 70 71 71 70 69 68 67 67 67 69 70 72 73 75 76 76 76 76 76 75 73 72 70 69 68 67 66 65 64 61 59 56 53 50 47 45 43 42 40 39 40 41 43 45 46 47 47 47 47 47 47 46 46 46 45 44 44 44 43 43 43 42 41 40 39 38 37 37 37 37 38 39 40 41 42
72 71 71 71 72 71 70 70 70 70 70 71 72 73 72 71 70 70 71 72 74 76 76 78 78 78 77 76 74 73 71 69 68 66 66 65 64 62 60 58 55 52 49 46 44 43 42 41 39 39 40 42 44 45 47 47 46 46 45 44 44 44 44 44 44 44 44 44 44 43 43 42 41 40 39 38 37 37 36 37 37 37 38 39 40 41
72 72 72 72 72 72 72 72 71 72 72 73 75 76 76 75 75 75 75 76 78 78 78 78 77 76 74 71 70 68 67 66 65 63 62 60 58 55 52 50 47 45 44 42 41 40 39 39 39 40 42 44 45 46 46 45 45 44 43 43 43 43 44 44 44 44 45 44 43 42 41 40 39 38 38 37 37 36 36 36 36 37 37 38 39 40
73 73 73 73 73 73 73 73 73 73 73 75 76 78 78 78 78 77 77 76 76 76 75 73 71 69 67 65 64 64 64 62 61 59 56 53 50 48 45 44 43 42 41 39 39 38 38 39 40 42 43 45 45 45 44 44 43 43 43 44 44 44 45 45 45 45 44 43 42 41 40 39 38 37 37 36 36 36 35 36 36 36 37 37 38 39
75 75 74 74 74 74 73 74 74 74 74 74 76 77 77 77 76 75 74 73 71 70 68 65 63 61 61 60 60 59 57 55 53 51 49 47 45 44 43 42 41 39 38 37 37 38 39 40 42 43 44 44 44 44 44 43 43 44 44 45 45 45 46 45 45 44 43 42 41 40 39 38 37 36 36 35 35 35 35 35 36 36 36 37 37 38
76 75 74 74 74 73 73 72 72 72 72 72 72 71 71 71 70 69 68 66 64 62 61 60 59 58 56 55 53 51 49 47 46 45 44 44 43 42 41 40 39 38 38 39 40 41 42 43 43 44 44 44 44 44 44 44 44 45 45 46 46 46 45 45 44 42 41 40 39 38 37 36 36 35 35 34 34 34 35 35 35 36 36 37 37 37
75 74 72 72 72 72 70 70 69 68 68 67 66 66 64 64 63 63 62 60 60 59 59 59 58 56 53 50 48 46 45 44 43 43 42 42 41 40 39 39 39 40 41 42 43 44 45 45 45 45 45 45 45 45 45 45 46 46 46 46 46 45 44 43 42 40 39 38 37 36 35 34 34 33 33 33 33 34 34 34 35 35 36 37 37 38
73 71 70 69 68 67 67 66 65 64 64 63 62 62 61 60 60 60 61 61 60 59 58 56 53 51 48 46 45 43 43 42 42 41 40 40 39 39 40 41 42 44 45 46 46 47 47 46 46 46 46 46 46 46 46 46 46 46 46 45 44 43 41 40 38 37 35 34 34 33 32 32 31 32 32 32 33 33 34 34 35 36 36 37 38 38
69 68 67 65 64 63 63 62 62 62 61 60 59 58 58 59 59 60 60 59 58 55 52 48 46 44 43 42 41 39 39 39 39 39 40 40 41 42 43 45 46 47 48 48 47 47 47 46 46 46 46 46 47 47 47 47 46 45 44 42 41 39 37 36 34 33 32 31 30 30 29 29 29 30 30 31 32 33 34 35 36 37 38 38 39 39
67 66 64 63 62 61 61 60 59 59 59 59 58 57 57 56 56 55 54 51 49 46 43 41 39 38 38 37 36 36 37 38 39 41 43 44 45 46 47 48 48 49 49 48 47 47 47 47 47 47 47 47 47 46 46 45 43 42 40 38 36 34 32 31 30 29 28 27 27 27 27 28 28 29 31 32 33 35 36 37 38 38 39 39 39 38
65 64 62 62 61 59 59 58 57 56 56 56 54 53 51 49 47 45 43 40 39 37 36 35 35 34 35 35 36 37 39 41 44 46 48 48 48 48 49 49 49 49 49 49 48 48 48 48 48 47 47 46 45 44 42 40 39 36 35 33 31 29 28 27 26 25 25 25 25 26 26 28 29 30 32 34 35 37 38 38 39 39 39 38 38 36
61 60 59 58 56 55 54 54 52 51 50 48 46 44 41 39 37 35 35 34 33 33 34 34 35 36 36 38 40 42 43 45 47 49 50 50 49 48 48 49 49 49 50 50 49 48 48 48 47 46 44 43 41 39 37 35 33 31 29 28 26 25 24 24 24 24 24 24 25 26 28 30 31 33 35 36 37 38 38 38 38 38 37 36 35 34
55 53 52 51 50 48 48 47 45 43 42 39 37 35 33 32 32 31 32 32 33 35 36 38 40 42 42 43 44 44 45 46 46 47 49 49 48 48 48 49 50 50 50 49 48 47 46 45 43 41 39 37 34 32 31 29 27 26 25 24 23 23 23 23 23 24 25 26 28 29 31 32 34 35 37 37 38 38 38 38 37 36 35 35 34 33
46 45 45 44 42 41 41 40 38 36 34 33 32 31 31 31 32 33 34 35 37 39 41 42 44 44 44 45 43 42 43 44 45 46 48 49 49 49 48 49 49 49 49 47 45 43 41 39 37 35 32 30 28 27 26 24 23 23 22 22 22 23 23 24 25 26 28 30 31 33 34 36 37 37 38 38 38 38 37 37 36 35 35 34 33 32
40 39 38 37 36 35 35 33 32 31 30 30 31 32 33 34 35 37 38 39 40 42 42 42 42 42 42 42 41 41 42 44 45 47 49 50 50 49 48 47 47 45 44 41 38 36 34 32 30 28 26 25 24 23 22 22 22 22 22 22 23 24 25 27 29 30 32 34 35 37 38 39 39 39 39 39 39 38 37 37 36 35 35 33 32 31
36 35 34 33 32 31 30 30 30 30 31 32 34 35 36 37 37 38 39 39 40 40 40 41 41 41 41 42 42 42 43 45 47 48 50 50 49 48 45 43 41 39 36 33 31 29 27 26 25 24 23 22 22 21 21 22 22 23 24 25 26 27 29 31 33 35 36 38 39 40 40 40 40 40 39 39 39 38 37 36 35 34 33 32 31 30
33 32 32 31 30 30 30 31 32 33 34 35 36 36 36 36 37 37 37 38 39 39 40 41 42 42 43 44 44 44 45 47 48 48 48 47 44 42 39 36 33 32 30 27 26 24 23 23 22 22 22 22 22 22 23 24 25 26 27 29 30 32 34 36 37 39 40 40 41 41 41 40 40 39 38 38 37 36 35 34 32 31 30 29 29 28
32 31 31 32 32 31 32 34 35 35 36 36 36 36 36 36 37 38 38 40 41 42 43 44 45 45 45 46 46 46 46 47 46 45 43 40 37 34 31 29 27 26 24 23 22 22 21 21 22 22 23 23 24 25 26 28 29 31 32 34 36 37 38 40 40 41 41 41 40 40 39 38 37 36 35 34 33 32 31 30 29 28 28 28 27 28
33 33 33 34 34 34 35 36 37 37 37 37 37 38 38 39 41 41 42 44 45 45 46 46 46 47 47 47 47 45 44 42 40 38 35 32 30 28 26 24 22 22 21 21 21 21 22 22 23 25 26 27 28 30 32 34 35 37 38 39 40 40 41 41 40 40 39 38 38 37 35 34 33 32 31 30 29 28 28 28 27 27 27 27 28 28
34 35 36 37 37 37 38 38 38 39 39 40 41 41 42 43 44 45 45 46 46 46 47 47 46 46 45 45 43 42 39 36 33 31 29 26 25 24 22 21 20 20 20 21 23 24 24 26 27 30 32 33 35 36 38 39 40 41 41 41 41 40 40 39 38 36 35 34 33 32 31 30 29 29 28 28 28 28 28 28 28 28 28 28 28 28
37 38 38 39 39 39 39 39 40 41 42 43 43 44 44 44 44 44 45 45 45 45 45 44 42 41 40 39 37 35 33 30 27 26 24 23 22 21 21 20 20 20 21 23 26 29 31 32 34 36 39 40 41 42 42 42 42 42 41 39 38 36 35 34 33 32 31 30 29 29 29 28 28 28 28 28 28 28 28 28 28 29 28 28 28 28
39 39 40 39 39 40 40 41 42 43 43 44 44 44 43 43 43 43 43 43 43 42 41 39 37 35 34 32 31 29 27 25 23 22 22 21 20 20 20 21 22 22 23 27 31 35 38 39 40 42 43 43 43 43 42 41 39 38 36 34 33 31 30 29 29 29 28 28 28 29 29 29 29 29 29 29 29 29 29 29 29 29 29 29 28 28
40 40 39 39 39 39 40 40 41 42 42 42 42 42 42 42 41 40 40 39 38 37 35 33 31 29 28 27 26 25 23 22 21 21 20 20 20 21 21 24 26 28 30 34 38 41 43 43 43 43 42 42 41 39 37 36 34 32 30 29 29 28 28 28 28 28 29 29 29 29 29 29 29 29 29 29 29 29 29 29 29 29 29 29 29 29
39 38 38 37 37 38 38 39 39 40 40 40 39 39 39 39 38 37 36 35 33 32 30 28 26 25 24 23 23 22 21 20 20 20 21 21 22 23 26 30 33 36 38 41 43 44 43 42 41 39 38 37 36 35 33 31 30 29 28 28 28 28 28 29 29 29 29 29 29 29 29 29 30 30 30 30 30 30 30 30 30 30 29 29 29 29
37 36 36 36 36 36 37 38 38 38 38 38 37 37 37 36 35 33 32 31 29 28 26 25 23 23 22 21 21 21 20 20 21 22 23 25 27 30 34 38 40 42 43 43 42 41 39 38 36 35 33 33 33 32 31 30 29 29 29 29 29 29 29 29 29 29 29 29 29 29 29 29 30 30 30 30 30 30 30 30 30 30 30 30 30 30
36 35 35 36 36 36 37 37 37 37 36 36 36 35 35 34 32 30 29 27 26 25 24 23 22 21 21 20 20 20 21 22 24 27 30 33 35 38 42 43 44 43 42 40 38 36 35 34 34 33 32 32 32 32 32 31 30 30 29 29 29 29 29 29 29 29 29 29 29 29 29 30 30 31 31 31 31 31 31 31 31 31 31 31 31 30
35 36 36 36 36 36 36 36 36 36 35 35 35 33 32 31 29 28 26 25 24 23 23 22 21 21 21 21 21 22 25 28 31 34 38 41 42 43 44 43 40 39 37 36 35 34 34 33 33 33 32 32 32 32 32 31 31 30 29 29 29 29 29 29 29 28 29 29 29 29 30 30 31 31 32 32 32 32 32 32 32 32 32 32 32 31
36 36 36 36 36 36 36 35 35 35 35 34 32 31 30 29 27 25 24 23 22 22 22 21 21 21 21 23 25 29 32 37 40 42 43 44 43 41 39 37 35 34 33 34 35 35 36 35 34 33 33 33 33 32 32 32 31 30 30 29 29 29 29 29 29 29 29 29 30 30 31 31 32 32 32 33 33 33 33 33 34 34 34 33 33 33
36 37 37 37 36 36 36 36 35 34 33 32 30 29 28 26 25 24 23 22 21 21 20 21 21 23 25 29 33 37 42 44 45 43 42 40 37 35 34 33 33 33 33 35 36 37 37 37 36 34 34 33 33 33 33 32 31 31 30 29 29 29 29 29 29 29 29 30 31 31 32 33 33 33 34 34 34 34 35 35 35 36 36 36 36 35
36 36 37 37 37 37 36 35 34 33 31 29 28 26 25 24 23 22 22 21 21 21 22 24 26 30 34 38 42 44 45 44 41 39 36 34 33 32 32 33 33 34 35 36 37 37 38 37 37 36 35 34 34 34 34 33 32 31 30 30 30 29 29 29 30 30 31 31 32 33 33 34 35 35 35 36 36 36 37 37 38 38 38 38 38 38
36 36 36 36 35 35 34 34 32 31 28 26 25 24 23 22 22 21 21 22 23 25 28 32 36 40 44 45 44 43 41 38 35 33 32 32 32 33 33 34 35 36 36 37 37 38 38 38 38 38 37 36 35 35 35 34 33 32 31 31 31 30 30 31 31 31 32 33 34 35 36 36 37 37 38 38 39 39 40 40 40 41 41 41 41 41
35 35 34 33 33 32 31 31 29 28 25 23 22 22 22 22 22 23 24 27 30 33 37 40 43 44 44 42 40 37 34 33 32 32 32 33 34 34 35 35 36 36 37 37 38 38 39 38 38 39 39 38 37 37 36 35 33 32 32 31 31 31 32 32 33 33 34 35 36 37 38 38 39 40 40 41 41 42 43 43 43 43 43 43 43 43
33 32 31 31 30 30 29 28 26 24 22 21 21 22 23 25 27 29 32 35 38 41 43 43 42 41 38 35 33 32 32 32 33 33 34 34 35 35 36 36 36 37 38 38 39 39 39 39 39 39 40 41 40 39 37 36 34 33 32 32 32 32 33 33 34 35 36 37 38 39 40 41 42 43 43 44 44 45 46 46 46 46 45 45 44 44
32 30 30 29 29 28 26 24 23 21 20 21 23 25 29 32 35 38 40 42 43 42 42 39 37 35 33 32 32 32 33 34 34 34 35 35 36 36 37 37 37 38 39 39 40 40 40 41 41 41 40 41 41 40 39 37 35 34 32 32 32 33 33 34 35 36 37 39 40 41 43 44 45 46 46 47 48 48 48 48 48 47 46 46 45 44
30 29 28 27 26 24 23 21 21 22 24 27 31 34 38 40 42 43 43 42 40 38 35 34 33 32 33 33 34 34 35 35 35 35 36 36 36 37 37 38 38 39 39 40 40 40 41 41 42 42 42 41 41 40 39 39 37 35 33 32 32 33 34 35 36 37 38 40 42 44 45 46 48 49 50 50 50 50 50 49 49 48 47 45 44 43
28 27 26 24 23 22 22 23 26 29 33 36 39 42 43 44 43 41 39 36 34 33 32 33 33 34 35 35 35 35 36 36 36 36 37 37 37 38 38 39 39 40 40 40 40 41 41 42 42 42 43 43 42 42 41 39 38 36 34 33 32 32 34 35 37 38 40 42 44 46 48 49 50 52 53 53 53 53 52 51 49 48 46 45 44 43
25 24 23 23 24 25 27 31 34 38 41 43 44 44 43 41 38 35 33 32 32 33 33 35 35 36 36 36 36 36 36 37 37 37 37 38 38 39 39 40 40 40 41 41 41 41 41 42 42 43 43 43 43 43 42 40 38 37 35 34 33 33 34 36 38 40 42 44 46 48 50 52 53 54 55 55 54 53 52 51 49 47 46 45 44 43
24 24 25 27 30 33 36 39 41 43 44 44 43 40 37 35 33 32 32 33 33 34 36 36 37 37 37 37 37 37 37 37 38 38 38 39 39 40 40 40 41 41 41 41 41 41 42 42 43 43 43 43 43 43 41 39 38 36 36 35 34 34 35 37 39 42 44 46 48 50 53 55 56 57 56 56 54 53 52 50 49 47 45 44 44 43
26 28 31 34 37 40 42 43 44 44 42 40 37 34 33 32 32 33 33 34 35 36 36 36 37 37 37 37 37 37 37 37 38 38 39 39 40 40 41 41 41 41 42 42 42 42 42 42 42 43 43 43 43 43 41 39 37 36 36 36 37 37 39 39 41 43 46 49 51 53 55 57 58 58 56 55 54 52 50 49 47 46 45 45 44 44
33 36 38 41 42 43 44 43 42 39 37 35 34 33 32 32 33 34 34 35 35 36 36 36 37 37 37 37 37 38 38 38 39 39 40 40 41 41 41 41 41 42 42 42 43 42 42 42 42 42 43 43 42 42 41 39 38 37 38 38 39 41 42 42 43 46 48 51 54 56 58 58 58 57 55 54 52 50 49 47 46 45 45 45 45 44
39 41 43 43 43 42 41 39 37 35 34 33 33 33 33 33 34 34 34 35 36 36 37 37 37 38 38 38 39 39 39 40 40 40 41 41 41 41 41 42 42 42 42 42 43 43 43 43 43 42 42 42 41 41 40 39 39 38 39 40 41 43 44 45 47 49 52 54 56 58 59 59 58 56 54 52 50 49 48 47 46 46 45 45 45 45
42 43 43 42 40 38 36 35 34 34 34 34 34 34 34 34 34 35 35 36 36 37 37 38 38 39 40 40 40 40 40 40 41 41 41 41 42 42 42 42 42 42 43 43 43 43 44 44 43 43 42 41 40 40 39 39 40 40 41 43 44 46 48 49 51 53 55 57 59 60 59 58 57 55 53 50 49 48 48 48 47 46 45 45 45 45
42 41 40 38 36 35 34 33 34 34 34 34 34 35 35 35 36 36 36 37 38 38 39 39 40 40 41 41 41 40 40 40 40 40 41 41 41 42 42 42 42 42 43 43 43 43 43 43 43 43 42 41 40 39 39 39 41 42 44 46 48 50 52 54 55 57 59 60 60 60 58 57 55 53 51 50 49 48 48 47 47 46 45 45 44 43
39 37 36 35 34 33 33 33 34 34 35 35 35 35 36 36 37 37 38 39 39 40 40 40 41 41 41 41 41 41 41 41 40 40 40 41 41 41 42 42 42 42 42 43 43 43 43 43 43 43 42 41 40 39 39 40 42 44 47 50 53 55 56 58 59 59 60 60 59 59 57 56 55 53 51 50 49 48 47 46 44 43 43 42 41 40
36 35 34 34 33 33 34 34 35 35 35 36 36 36 37 38 38 39 39 40 40 41 41 41 41 41 42 41 41 41 41 41 40 40 40 40 41 41 41 41 41 42 42 42 42 42 43 42 43 43 43 42 41 40 40 42 44 47 51 54 56 58 59 60 60 60 60 59 58 57 56 55 54 53 52 51 50 48 45 43 41 40 39 39 38 37
34 34 34 34 34 34 34 35 35 35 36 36 36 37 38 38 39 40 40 41 41 41 41 41 41 42 42 41 41 41 41 40 40 40 39 40 40 40 40 40 41 41 42 42 42 42 42 42 42 43 43 42 42 42 42 44 46 49 53 55 58 59 60 60 60 59 58 58 57 56 55 55 54 53 53 52 49 46 42 39 37 36 36 36 36 35
33 33 34 34 34 35 35 35 36 36 36 37 37 37 38 38 39 40 40 41 41 41 41 41 41 41 41 41 41 40 40 40 39 39 39 39 40 40 40 40 40 41 42 42 42 42 41 42 43 43 43 44 44 44 45 47 49 51 53 55 57 58 59 59 58 57 57 57 57 57 56 55 54 53 52 50 47 43 39 36 35 34 34 34 34 34